Flag for Germany Weather past 2 weeks in Eisenach, Thuringia, Germany

56 °F

Low clouds.

Feels Like: 56 °F
Forecast: 51 / 58 °F
Wind: 2 mph from South

Location: Meiningen

Current Time: Oct 7, 2015 at 7:22:23 AM

Latest Report: Oct 7, 2015 at 7:00 AM

Visibility: 0 mi

Pressure: 29.81 "Hg

Humidity: 100%

Dew point: 56 °F

Location of EisenachLocation

Historic Weather in Eisenach — Graph


Eisenach temperature yesterday

Maximum temperature yesterday: 59 °F (at 5:00 PM)
Minimum temperature yesterday: 50 °F (at 4:00 AM)
Average temperature yesterday: 54 °F

Past Weeks' High & Low Weather Summary

High65 °F (Oct 2, 3:00 PM)100% (Sep 24, 7:00 AM)30.62 "Hg (Sep 24, 7:00 AM)
Low36 °F (Oct 2, 7:00 AM)33% (Oct 2, 3:00 PM)29.63 "Hg (Sep 22, 7:00 PM)
Average51 °F80%30.18 "Hg
* Reported Sep 22 7:00 AM — Oct 7 6:00 AM, Eisenach, Weather by CustomWeather, © 2015

Note: Actual official high and low records may vary slightly from our data, if they occured in-between our weather recording intervals... More about our weather records


Eisenach weather history for previous 24 hours

Time TempWeatherWind HumidityBarometerVisibility
6:00 AM
Wed, Oct 7
56 °FFog.2 mph100%29.80 "Hg2 mi
4:00 AM57 °FFog.2 mph99%29.78 "Hg3 mi
3:00 AM57 °FFog.3 mph99%29.78 "Hg3 mi
2:00 AM57 °FLow clouds.3 mph100%29.78 "Hg3 mi
1:00 AM57 °FLow clouds.2 mph100%29.77 "Hg0 mi
11:00 PM
Tue, Oct 6
58 °FLight rain. Low clouds.2 mph100%29.76 "Hg3 mi
10:00 PM58 °FRain. Low clouds.3 mph100%29.75 "Hg1 mi
9:00 PM57 °FLight rain. Low clouds.3 mph99%29.74 "Hg1 mi
8:00 PM58 °FLight rain. Low clouds.3 mph99%29.74 "Hg1 mi
7:00 PM58 °FRain. Low clouds.3 mph97%29.73 "Hg1 mi
6:00 PM59 °FFog.1 mph95%29.71 "Hg3 mi
5:00 PM59 °FFog.2 mph95%29.72 "Hg3 mi
4:00 PM57 °FLow clouds.2 mph96%29.73 "Hg2 mi
3:00 PM56 °FLight rain. Low clouds.2 mph98%29.75 "Hg2 mi
2:00 PM55 °FFog.3 mph99%29.76 "Hg2 mi
1:00 PM54 °FLow clouds.2 mph99%29.77 "Hg2 mi
12:00 PM53 °FLow clouds.3 mph100%29.77 "Hg0 mi
10:00 AM52 °FDrizzle. Low clouds.3 mph100%29.76 "Hg0 mi
9:00 AM51 °FLow clouds.3 mph100%29.77 "Hg1 mi
8:00 AM51 °FLow clouds.5 mph100%29.77 "Hg0 mi
7:00 AM51 °FLight freezing rain. Low clouds.5 mph100%29.78 "Hg1 mi
Weather by CustomWeather, © 2015

See weather overviewHow to use our weather pages